Time,TemperatureF,DewpointF,PressureIn,WindDirection,WindDirectionDegrees,WindSpeedMPH,WindSpeedGustMPH,Humidity,HourlyPrecipIn,Conditions,Clouds,dailyrainin,SoftwareType,DateUTC
2013-09-09 00:01:00,65.8,40.2,29.43,North,360,0.0,12.0,39,0.00,,---,0.00,VWS V12.08,2013-09-09 04:01:00,
2013-09-09 00:02:00,65.8,40.8,29.43,North,360,7.0,12.0,40,0.00,,---,0.00,VWS V12.08,2013-09-09 04:02:00,
2013-09-09 00:03:00,65.8,39.5,29.43,North,360,2.0,12.0,38,0.00,,---,0.00,VWS V12.08,2013-09-09 04:03:00,
2013-09-09 00:04:00,65.8,40.2,29.43,North,360,0.0,12.0,39,0.00,,---,0.00,VWS V12.08,2013-09-09 04:04:00,
2013-09-09 00:09:00,65.8,40.8,29.43,North,360,0.0,14.0,40,0.00,,---,0.00,VWS V12.08,2013-09-09 04:09:00,
2013-09-09 00:12:00,66.0,39.0,29.43,North,360,13.0,14.0,37,0.00,,---,0.00,VWS V12.08,2013-09-09 04:12:00,
2013-09-09 00:17:00,65.3,38.4,29.43,East,99,0.0,14.0,37,0.00,,---,0.00,VWS V12.08,2013-09-09 04:17:00,
2013-09-09 00:22:00,65.0,38.8,29.43,North,360,17.0,20.0,38,0.00,,---,0.00,VWS V12.08,2013-09-09 04:22:00,
2013-09-09 00:27:00,65.2,40.3,29.44,North,360,9.0,20.0,40,0.00,,---,0.00,VWS V12.08,2013-09-09 04:27:00,
2013-09-09 00:32:00,65.3,39.1,29.44,North,360,7.0,12.0,38,0.00,,---,0.00,VWS V12.08,2013-09-09 04:32:00,
2013-09-09 00:37:00,65.0,39.5,29.44,North,360,10.0,16.0,39,0.00,,---,0.00,VWS V12.08,2013-09-09 04:37:00,
2013-09-09 00:42:00,64.8,39.3,29.44,North,360,15.0,16.0,39,0.00,,---,0.00,VWS V12.08,2013-09-09 04:42:00,
2013-09-09 00:47:00,65.0,38.8,29.44,North,360,10.0,16.0,38,0.00,,---,0.00,VWS V12.08,2013-09-09 04:47:00,
2013-09-09 00:52:00,65.3,39.1,29.44,North,360,0.0,16.0,38,0.00,,---,0.00,VWS V12.08,2013-09-09 04:52:00,
2013-09-09 00:57:00,64.7,39.2,29.44,North,360,8.0,16.0,39,0.00,,---,0.00,VWS V12.08,2013-09-09 04:57:00,
2013-09-09 01:03:00,64.0,39.2,29.44,North,360,0.0,12.0,40,0.00,,---,0.00,VWS V12.08,2013-09-09 05:03:00,
2013-09-09 01:08:00,63.9,39.1,29.44,North,360,2.0,12.0,40,0.00,,---,0.00,VWS V12.08,2013-09-09 05:08:00,
2013-09-09 01:13:00,63.7,40.2,29.45,North,360,0.0,12.0,42,0.00,,---,0.00,VWS V12.08,2013-09-09 05:13:00,
2013-09-09 01:18:00,63.7,40.2,29.45,North,360,0.0,12.0,42,0.00,,---,0.00,VWS V12.08,2013-09-09 05:18:00,
2013-09-09 01:23:00,64.0,39.8,29.45,North,360,0.0,12.0,41,0.00,,---,0.00,VWS V12.08,2013-09-09 05:23:00,
2013-09-09 01:28:00,63.9,39.1,29.45,North,360,4.0,6.0,40,0.00,,---,0.00,VWS V12.08,2013-09-09 05:28:00,
2013-09-09 01:33:00,64.0,40.5,29.45,North,360,0.0,6.0,42,0.00,,---,0.00,VWS V12.08,2013-09-09 05:33:00,
2013-09-09 01:38:00,64.8,39.3,29.45,North,360,0.0,6.0,39,0.00,,---,0.00,VWS V12.08,2013-09-09 05:38:00,
2013-09-09 01:43:00,65.0,40.1,29.46,North,360,0.0,6.0,40,0.00,,---,0.00,VWS V12.08,2013-09-09 05:43:00,
2013-09-09 01:48:00,65.2,40.3,29.46,North,360,0.0,6.0,40,0.00,,---,0.00,VWS V12.08,2013-09-09 05:48:00,
2013-09-09 01:53:00,65.5,40.6,29.46,North,360,0.0,6.0,40,0.00,,---,0.00,VWS V12.08,2013-09-09 05:53:00,
2013-09-09 01:58:00,64.8,40.6,29.46,North,360,0.0,0.0,41,0.00,,---,0.00,VWS V12.08,2013-09-09 05:58:00,
2013-09-09 02:03:00,65.5,41.2,29.46,North,360,0.0,2.0,41,0.00,,---,0.00,VWS V12.08,2013-09-09 06:03:00,
2013-09-09 02:08:00,65.6,40.7,29.46,North,360,0.0,2.0,40,0.00,,---,0.00,VWS V12.08,2013-09-09 06:08:00,
2013-09-09 02:13:00,65.5,40.6,29.47,North,360,0.0,4.0,40,0.00,,---,0.00,VWS V12.08,2013-09-09 06:13:00,
2013-09-09 02:18:00,65.2,40.3,29.47,North,360,0.0,4.0,40,0.00,,---,0.00,VWS V12.08,2013-09-09 06:18:00,
2013-09-09 02:23:00,65.0,40.8,29.47,North,360,0.0,4.0,41,0.00,,---,0.00,VWS V12.08,2013-09-09 06:23:00,
2013-09-09 02:28:00,64.7,41.1,29.47,North,360,1.0,1.0,42,0.00,,---,0.00,VWS V12.08,2013-09-09 06:28:00,
2013-09-09 02:33:00,64.3,41.3,29.47,North,360,0.0,3.0,43,0.00,,---,0.00,VWS V12.08,2013-09-09 06:33:00,
2013-09-09 02:38:00,64.5,41.5,29.47,North,360,0.0,3.0,43,0.00,,---,0.00,VWS V12.08,2013-09-09 06:38:00,
2013-09-09 02:43:00,64.8,41.2,29.47,North,360,0.0,3.0,42,0.00,,---,0.00,VWS V12.08,2013-09-09 06:43:00,
2013-09-09 02:48:00,64.8,41.8,29.47,North,360,2.0,3.0,43,0.00,,---,0.00,VWS V12.08,2013-09-09 06:48:00,
2013-09-09 02:53:00,65.0,42.0,29.47,North,360,1.0,3.0,43,0.00,,---,0.00,VWS V12.08,2013-09-09 06:53:00,
2013-09-09 02:58:00,65.0,42.0,29.47,North,360,0.0,1.0,43,0.00,,---,0.00,VWS V12.08,2013-09-09 06:58:00,
2013-09-09 03:03:00,64.7,42.3,29.47,North,360,0.0,4.0,44,0.00,,---,0.00,VWS V12.08,2013-09-09 07:03:00,
2013-09-09 03:08:00,64.8,42.4,29.47,North,360,2.0,4.0,44,0.00,,---,0.00,VWS V12.08,2013-09-09 07:08:00,
2013-09-09 03:13:00,64.5,43.3,29.47,North,360,1.0,4.0,46,0.00,,---,0.00,VWS V12.08,2013-09-09 07:13:00,
2013-09-09 03:18:00,64.3,43.1,29.47,North,360,1.0,4.0,46,0.00,,---,0.00,VWS V12.08,2013-09-09 07:18:00,
2013-09-09 03:23:00,64.2,43.0,29.47,North,360,1.0,4.0,46,0.00,,---,0.00,VWS V12.08,2013-09-09 07:23:00,
2013-09-09 03:28:00,63.9,43.3,29.48,North,360,0.0,0.0,47,0.00,,---,0.00,VWS V12.08,2013-09-09 07:28:00,
2013-09-09 03:33:00,63.9,43.3,29.48,North,360,0.0,0.0,47,0.00,,---,0.00,VWS V12.08,2013-09-09 07:33:00,
2013-09-09 03:38:00,64.0,42.8,29.48,North,360,0.0,3.0,46,0.00,,---,0.00,VWS V12.08,2013-09-09 07:38:00,
2013-09-09 03:43:00,63.9,43.3,29.49,North,360,0.0,3.0,47,0.00,,---,0.00,VWS V12.08,2013-09-09 07:43:00,
2013-09-09 03:48:00,63.9,43.8,29.49,North,360,1.0,3.0,48,0.00,,---,0.00,VWS V12.08,2013-09-09 07:48:00,
2013-09-09 03:53:00,64.2,43.6,29.49,North,360,0.0,3.0,47,0.00,,---,0.00,VWS V12.08,2013-09-09 07:53:00,
2013-09-09 03:58:00,64.0,43.4,29.50,North,360,2.0,2.0,47,0.00,,---,0.00,VWS V12.08,2013-09-09 07:58:00,
2013-09-09 04:03:00,64.0,43.4,29.50,North,360,0.0,2.0,47,0.00,,---,0.00,VWS V12.08,2013-09-09 08:03:00,
2013-09-09 04:08:00,64.0,43.9,29.50,North,360,0.0,2.0,48,0.00,,---,0.00,VWS V12.08,2013-09-09 08:08:00,
2013-09-09 04:13:00,64.0,43.9,29.50,North,360,0.0,3.0,48,0.00,,---,0.00,VWS V12.08,2013-09-09 08:13:00,
2013-09-09 04:18:00,64.2,43.6,29.50,North,360,0.0,3.0,47,0.00,,---,0.00,VWS V12.08,2013-09-09 08:18:00,
2013-09-09 04:23:00,64.2,43.6,29.50,North,360,1.0,3.0,47,0.00,,---,0.00,VWS V12.08,2013-09-09 08:23:00,
2013-09-09 04:28:00,64.0,43.9,29.50,North,360,0.0,0.0,48,0.00,,---,0.00,VWS V12.08,2013-09-09 08:28:00,
2013-09-09 04:33:00,63.9,44.4,29.50,North,360,1.0,2.0,49,0.00,,---,0.00,VWS V12.08,2013-09-09 08:33:00,
2013-09-09 04:38:00,63.9,44.4,29.50,North,360,0.0,2.0,49,0.00,,---,0.00,VWS V12.08,2013-09-09 08:38:00,
2013-09-09 04:43:00,63.7,44.2,29.50,North,360,0.0,3.0,49,0.00,,---,0.00,VWS V12.08,2013-09-09 08:43:00,
2013-09-09 04:48:00,63.7,44.2,29.50,North,360,0.0,3.0,49,0.00,,---,0.00,VWS V12.08,2013-09-09 08:48:00,
2013-09-09 04:53:00,63.9,44.9,29.50,North,360,0.0,4.0,50,0.00,,---,0.00,VWS V12.08,2013-09-09 08:53:00,
2013-09-09 04:58:00,64.0,44.5,29.51,North,360,0.0,0.0,49,0.00,,---,0.00,VWS V12.08,2013-09-09 08:58:00,
2013-09-09 05:03:00,64.2,44.7,29.51,North,360,0.0,0.0,49,0.00,,---,0.00,VWS V12.08,2013-09-09 09:03:00,
2013-09-09 05:08:00,64.0,45.0,29.51,North,360,1.0,2.0,50,0.00,,---,0.00,VWS V12.08,2013-09-09 09:08:00,
2013-09-09 05:13:00,63.7,44.7,29.52,North,360,0.0,2.0,50,0.00,,---,0.00,VWS V12.08,2013-09-09 09:13:00,
2013-09-09 05:18:00,63.7,44.2,29.52,North,360,0.0,4.0,49,0.00,,---,0.00,VWS V12.08,2013-09-09 09:18:00,
2013-09-09 05:23:00,63.9,44.4,29.52,North,360,0.0,4.0,49,0.00,,---,0.00,VWS V12.08,2013-09-09 09:23:00,
2013-09-09 05:28:00,64.0,43.9,29.53,SSW,207,0.0,0.0,48,0.00,,---,0.00,VWS V12.08,2013-09-09 09:28:00,
2013-09-09 05:33:00,63.7,43.7,29.53,North,360,3.0,3.0,48,0.00,,---,0.00,VWS V12.08,2013-09-09 09:33:00,
2013-09-09 05:38:00,63.5,42.9,29.53,North,360,0.0,3.0,47,0.00,,---,0.00,VWS V12.08,2013-09-09 09:38:00,
2013-09-09 05:43:00,63.4,43.4,29.54,North,360,0.0,3.0,48,0.00,,---,0.00,VWS V12.08,2013-09-09 09:43:00,
2013-09-09 05:48:00,63.5,42.9,29.54,North,360,0.0,3.0,47,0.00,,---,0.00,VWS V12.08,2013-09-09 09:48:00,
2013-09-09 05:53:00,63.7,43.1,29.54,North,360,0.0,3.0,47,0.00,,---,0.00,VWS V12.08,2013-09-09 09:53:00,
2013-09-09 05:58:00,63.5,42.9,29.55,North,360,0.0,0.0,47,0.00,,---,0.00,VWS V12.08,2013-09-09 09:58:00,
2013-09-09 06:03:00,63.9,43.3,29.55,North,360,0.0,0.0,47,0.00,,---,0.00,VWS V12.08,2013-09-09 10:03:00,
2013-09-09 06:08:00,64.0,43.9,29.55,North,360,0.0,1.0,48,0.00,,---,0.00,VWS V12.08,2013-09-09 10:08:00,
2013-09-09 06:13:00,64.0,43.9,29.55,North,360,1.0,1.0,48,0.00,,---,0.00,VWS V12.08,2013-09-09 10:13:00,
2013-09-09 06:18:00,63.9,43.8,29.55,North,360,0.0,2.0,48,0.00,,---,0.00,VWS V12.08,2013-09-09 10:18:00,
2013-09-09 06:23:00,63.7,44.2,29.55,North,360,3.0,3.0,49,0.00,,---,0.00,VWS V12.08,2013-09-09 10:23:00,
2013-09-09 06:28:00,63.9,43.8,29.55,North,360,0.0,0.0,48,0.00,,---,0.00,VWS V12.08,2013-09-09 10:28:00,
2013-09-09 06:33:00,64.0,43.9,29.55,North,360,0.0,1.0,48,0.00,,---,0.00,VWS V12.08,2013-09-09 10:33:00,
2013-09-09 06:38:00,64.0,43.9,29.55,South,188,0.0,4.0,48,0.00,,---,0.00,VWS V12.08,2013-09-09 10:38:00,
2013-09-09 06:43:00,63.7,43.7,29.56,North,360,0.0,4.0,48,0.00,,---,0.00,VWS V12.08,2013-09-09 10:43:00,
2013-09-09 06:48:00,64.0,43.9,29.56,North,360,0.0,4.0,48,0.00,,---,0.00,VWS V12.08,2013-09-09 10:48:00,
2013-09-09 06:53:00,63.9,43.8,29.56,North,360,0.0,4.0,48,0.00,,---,0.00,VWS V12.08,2013-09-09 10:53:00,
2013-09-09 06:58:00,63.7,43.7,29.57,North,360,0.0,0.0,48,0.00,,---,0.00,VWS V12.08,2013-09-09 10:58:00,
2013-09-09 07:03:00,63.7,43.7,29.57,North,360,0.0,0.0,48,0.00,,---,0.00,VWS V12.08,2013-09-09 11:03:00,
2013-09-09 07:08:00,64.0,43.4,29.57,North,360,0.0,2.0,47,0.00,,---,0.00,VWS V12.08,2013-09-09 11:08:00,
2013-09-09 07:13:00,63.7,43.7,29.57,North,360,0.0,3.0,48,0.00,,---,0.00,VWS V12.08,2013-09-09 11:13:00,
2013-09-09 07:18:00,64.0,43.9,29.57,North,360,2.0,3.0,48,0.00,,---,0.00,VWS V12.08,2013-09-09 11:18:00,
2013-09-09 07:23:00,63.9,44.4,29.57,North,360,0.0,3.0,49,0.00,,---,0.00,VWS V12.08,2013-09-09 11:23:00,
2013-09-09 07:28:00,63.7,44.2,29.58,North,360,0.0,2.0,49,0.00,,---,0.00,VWS V12.08,2013-09-09 11:28:00,
2013-09-09 07:33:00,63.5,44.0,29.58,North,360,0.0,2.0,49,0.00,,---,0.00,VWS V12.08,2013-09-09 11:33:00,
2013-09-09 07:38:00,63.4,44.5,29.58,North,360,0.0,2.0,50,0.00,,---,0.00,VWS V12.08,2013-09-09 11:38:00,
2013-09-09 07:43:00,63.5,45.1,29.58,North,360,0.0,2.0,51,0.00,,---,0.00,VWS V12.08,2013-09-09 11:43:00,
2013-09-09 07:48:00,63.5,45.1,29.58,North,360,0.0,2.0,51,0.00,,---,0.00,VWS V12.08,2013-09-09 11:48:00,
2013-09-09 07:53:00,63.2,45.3,29.58,North,360,1.0,2.0,52,0.00,,---,0.00,VWS V12.08,2013-09-09 11:53:00,
2013-09-09 07:58:00,63.1,45.7,29.58,SW,229,0.0,0.0,53,0.00,,---,0.00,VWS V12.08,2013-09-09 11:58:00,
2013-09-09 08:03:00,63.1,45.2,29.58,North,360,0.0,1.0,52,0.00,,---,0.00,VWS V12.08,2013-09-09 12:03:00,
2013-09-09 08:08:00,63.4,45.0,29.58,North,360,0.0,2.0,51,0.00,,---,0.00,VWS V12.08,2013-09-09 12:08:00,
2013-09-09 08:13:00,63.7,45.2,29.58,North,360,2.0,2.0,51,0.00,,---,0.00,VWS V12.08,2013-09-09 12:13:00,
2013-09-09 08:18:00,63.7,45.2,29.58,North,360,0.0,5.0,51,0.00,,---,0.00,VWS V12.08,2013-09-09 12:18:00,
2013-09-09 08:23:00,64.0,45.5,29.58,North,360,0.0,5.0,51,0.00,,---,0.00,VWS V12.08,2013-09-09 12:23:00,
2013-09-09 08:28:00,64.8,45.7,29.58,North,360,0.0,0.0,50,0.00,,---,0.00,VWS V12.08,2013-09-09 12:28:00,
2013-09-09 08:33:00,65.3,45.7,29.58,North,360,0.0,2.0,49,0.00,,---,0.00,VWS V12.08,2013-09-09 12:33:00,
2013-09-09 08:38:00,65.5,45.8,29.58,North,360,0.0,3.0,49,0.00,,---,0.00,VWS V12.08,2013-09-09 12:38:00,
2013-09-09 08:43:00,66.0,45.8,29.58,North,360,0.0,3.0,48,0.00,,---,0.00,VWS V12.08,2013-09-09 12:43:00,
2013-09-09 08:48:00,66.4,46.1,29.58,North,360,0.0,3.0,48,0.00,,---,0.00,VWS V12.08,2013-09-09 12:48:00,
2013-09-09 08:53:00,66.9,46.0,29.58,North,360,0.0,3.0,47,0.00,,---,0.00,VWS V12.08,2013-09-09 12:53:00,
2013-09-09 08:58:00,66.9,46.6,29.58,North,360,1.0,2.0,48,0.00,,---,0.00,VWS V12.08,2013-09-09 12:58:00,
2013-09-09 09:03:00,66.9,46.0,29.58,North,360,0.0,2.0,47,0.00,,---,0.00,VWS V12.08,2013-09-09 13:03:00,
2013-09-09 09:08:00,67.1,45.7,29.58,North,360,5.0,5.0,46,0.00,,---,0.00,VWS V12.08,2013-09-09 13:08:00,
2013-09-09 09:13:00,66.6,45.8,29.59,North,360,0.0,5.0,47,0.00,,---,0.00,VWS V12.08,2013-09-09 13:13:00,
2013-09-09 09:18:00,67.3,45.2,29.59,North,360,0.0,5.0,45,0.00,,---,0.00,VWS V12.08,2013-09-09 13:18:00,
2013-09-09 09:23:00,67.6,44.9,29.59,North,360,5.0,5.0,44,0.00,,---,0.00,VWS V12.08,2013-09-09 13:23:00,
2013-09-09 09:28:00,67.8,45.1,29.59,North,360,3.0,3.0,44,0.00,,---,0.00,VWS V12.08,2013-09-09 13:28:00,
2013-09-09 09:33:00,68.1,45.4,29.59,North,360,1.0,3.0,44,0.00,,---,0.00,VWS V12.08,2013-09-09 13:33:00,
2013-09-09 09:38:00,68.3,45.0,29.59,North,360,0.0,3.0,43,0.00,,---,0.00,VWS V12.08,2013-09-09 13:38:00,
2013-09-09 09:43:00,68.4,45.0,29.59,North,360,0.0,3.0,43,0.00,,---,0.00,VWS V12.08,2013-09-09 13:43:00,
2013-09-09 09:48:00,68.9,44.9,29.59,North,360,0.0,3.0,42,0.00,,---,0.00,VWS V12.08,2013-09-09 13:48:00,
2013-09-09 09:53:00,69.3,45.2,29.59,North,360,0.0,4.0,42,0.00,,---,0.00,VWS V12.08,2013-09-09 13:53:00,
2013-09-09 09:58:00,69.4,44.7,29.59,North,360,3.0,3.0,41,0.00,,---,0.00,VWS V12.08,2013-09-09 13:58:00,
2013-09-09 10:03:00,69.4,44.7,29.59,North,360,1.0,4.0,41,0.00,,---,0.00,VWS V12.08,2013-09-09 14:03:00,
2013-09-09 10:08:00,69.1,45.1,29.59,North,360,2.0,4.0,42,0.00,,---,0.00,VWS V12.08,2013-09-09 14:08:00,
2013-09-09 10:13:00,68.9,44.9,29.59,North,360,0.0,5.0,42,0.00,,---,0.00,VWS V12.08,2013-09-09 14:13:00,
2013-09-09 10:18:00,69.6,44.9,29.59,North,360,0.0,5.0,41,0.00,,---,0.00,VWS V12.08,2013-09-09 14:18:00,
2013-09-09 10:23:00,70.6,45.1,29.59,North,360,0.0,5.0,40,0.00,,---,0.00,VWS V12.08,2013-09-09 14:23:00,
2013-09-09 10:28:00,70.1,44.0,29.59,North,360,0.0,0.0,39,0.00,,---,0.00,VWS V12.08,2013-09-09 14:28:00,
2013-09-09 10:33:00,70.3,44.2,29.59,North,360,1.0,3.0,39,0.00,,---,0.00,VWS V12.08,2013-09-09 14:33:00,
2013-09-09 10:38:00,70.3,44.9,29.59,North,360,0.0,3.0,40,0.00,,---,0.00,VWS V12.08,2013-09-09 14:38:00,
2013-09-09 10:43:00,70.9,45.4,29.59,North,360,0.0,3.0,40,0.00,,---,0.00,VWS V12.08,2013-09-09 14:43:00,
2013-09-09 10:48:00,71.1,44.9,29.59,North,360,0.0,4.0,39,0.00,,---,0.00,VWS V12.08,2013-09-09 14:48:00,
2013-09-09 10:53:00,71.1,44.9,29.59,North,360,2.0,4.0,39,0.00,,---,0.00,VWS V12.08,2013-09-09 14:53:00,
2013-09-09 10:58:00,71.8,44.2,29.59,North,360,0.0,0.0,37,0.00,,---,0.00,VWS V12.08,2013-09-09 14:58:00,
2013-09-09 11:03:00,70.1,42.7,29.59,North,360,3.0,6.0,37,0.00,,---,0.00,VWS V12.08,2013-09-09 15:03:00,
2013-09-09 11:08:00,69.6,43.6,29.59,North,360,2.0,6.0,39,0.00,,---,0.00,VWS V12.08,2013-09-09 15:08:00,
2013-09-09 11:13:00,69.9,42.5,29.59,North,360,1.0,6.0,37,0.00,,---,0.00,VWS V12.08,2013-09-09 15:13:00,
2013-09-09 11:18:00,70.3,42.8,29.59,North,360,0.0,6.0,37,0.00,,---,0.00,VWS V12.08,2013-09-09 15:18:00,
2013-09-09 11:23:00,70.6,40.9,29.59,North,360,1.0,6.0,34,0.00,,---,0.00,VWS V12.08,2013-09-09 15:23:00,
2013-09-09 11:28:00,69.9,40.3,29.59,North,360,0.0,0.0,34,0.00,,---,0.00,VWS V12.08,2013-09-09 15:28:00,
2013-09-09 11:33:00,70.3,39.9,29.59,North,360,3.0,3.0,33,0.00,,---,0.00,VWS V12.08,2013-09-09 15:33:00,
2013-09-09 11:38:00,71.3,40.7,29.59,North,360,0.0,5.0,33,0.00,,---,0.00,VWS V12.08,2013-09-09 15:38:00,
2013-09-09 11:43:00,72.0,38.9,29.59,North,360,1.0,5.0,30,0.00,,---,0.00,VWS V12.08,2013-09-09 15:43:00,
2013-09-09 11:48:00,71.6,39.4,29.59,North,360,0.0,6.0,31,0.00,,---,0.00,VWS V12.08,2013-09-09 15:48:00,
2013-09-09 11:53:00,71.3,37.4,29.59,North,360,0.0,6.0,29,0.00,,---,0.00,VWS V12.08,2013-09-09 15:53:00,
2013-09-09 11:58:00,71.5,38.5,29.58,North,360,3.0,3.0,30,0.00,,---,0.00,VWS V12.08,2013-09-09 15:58:00,
2013-09-09 12:03:00,70.8,37.9,29.58,North,360,2.0,6.0,30,0.00,,---,0.00,VWS V12.08,2013-09-09 16:03:00,
2013-09-09 12:08:00,70.8,37.9,29.58,North,360,0.0,7.0,30,0.00,,---,0.00,VWS V12.08,2013-09-09 16:08:00,
2013-09-09 12:13:00,71.8,39.6,29.58,North,360,0.0,7.0,31,0.00,,---,0.00,VWS V12.08,2013-09-09 16:13:00,
2013-09-09 12:18:00,72.5,39.3,29.58,North,360,1.0,7.0,30,0.00,,---,0.00,VWS V12.08,2013-09-09 16:18:00,
2013-09-09 12:23:00,72.8,38.7,29.58,North,360,0.0,7.0,29,0.00,,---,0.00,VWS V12.08,2013-09-09 16:23:00,
2013-09-09 12:28:00,71.6,38.6,29.57,North,360,5.0,9.0,30,0.00,,---,0.00,VWS V12.08,2013-09-09 16:28:00,
2013-09-09 12:33:00,70.6,38.5,29.57,North,360,5.0,9.0,31,0.00,,---,0.00,VWS V12.08,2013-09-09 16:33:00,
2013-09-09 12:38:00,70.4,39.2,29.57,North,360,5.0,9.0,32,0.00,,---,0.00,VWS V12.08,2013-09-09 16:38:00,
2013-09-09 12:43:00,70.6,39.3,29.57,North,360,3.0,9.0,32,0.00,,---,0.00,VWS V12.08,2013-09-09 16:43:00,
2013-09-09 12:48:00,71.5,40.1,29.57,North,360,0.0,9.0,32,0.00,,---,0.00,VWS V12.08,2013-09-09 16:48:00,
2013-09-09 12:53:00,71.3,40.7,29.57,North,360,2.0,9.0,33,0.00,,---,0.00,VWS V12.08,2013-09-09 16:53:00,
2013-09-09 12:58:00,70.6,41.7,29.57,North,360,4.0,4.0,35,0.00,,---,0.00,VWS V12.08,2013-09-09 16:58:00,
2013-09-09 13:03:00,70.1,41.2,29.57,North,360,6.0,10.0,35,0.00,,---,0.00,VWS V12.08,2013-09-09 17:03:00,
2013-09-09 13:08:00,70.3,42.1,29.57,North,360,0.0,10.0,36,0.00,,---,0.00,VWS V12.08,2013-09-09 17:08:00,
2013-09-09 13:13:00,70.6,42.4,29.56,North,360,5.0,10.0,36,0.00,,---,0.00,VWS V12.08,2013-09-09 17:13:00,
2013-09-09 13:18:00,70.9,42.6,29.56,North,360,5.0,10.0,36,0.00,,---,0.00,VWS V12.08,2013-09-09 17:18:00,
2013-09-09 13:23:00,70.9,43.4,29.56,North,360,9.0,10.0,37,0.00,,---,0.00,VWS V12.08,2013-09-09 17:23:00,
2013-09-09 13:28:00,69.8,43.8,29.56,North,360,0.0,0.0,39,0.00,,---,0.00,VWS V12.08,2013-09-09 17:28:00,
2013-09-09 13:33:00,69.4,44.1,29.56,North,360,2.0,7.0,40,0.00,,---,0.00,VWS V12.08,2013-09-09 17:33:00,
2013-09-09 13:38:00,69.3,44.6,29.56,North,360,5.0,9.0,41,0.00,,---,0.00,VWS V12.08,2013-09-09 17:38:00,
2013-09-09 13:43:00,69.3,45.9,29.56,North,360,2.0,9.0,43,0.00,,---,0.00,VWS V12.08,2013-09-09 17:43:00,
2013-09-09 13:48:00,69.8,46.9,29.56,SE,144,3.0,9.0,44,0.00,,---,0.00,VWS V12.08,2013-09-09 17:48:00,
2013-09-09 13:53:00,70.3,46.8,29.56,North,360,4.0,9.0,43,0.00,,---,0.00,VWS V12.08,2013-09-09 17:53:00,
2013-09-09 13:58:00,70.9,47.3,29.56,North,360,0.0,2.0,43,0.00,,---,0.00,VWS V12.08,2013-09-09 17:58:00,
2013-09-09 14:03:00,71.5,47.2,29.56,North,360,0.0,3.0,42,0.00,,---,0.00,VWS V12.08,2013-09-09 18:03:00,
2013-09-09 14:08:00,70.9,47.9,29.56,North,360,4.0,8.0,44,0.00,,---,0.00,VWS V12.08,2013-09-09 18:08:00,
2013-09-09 14:13:00,70.9,48.5,29.55,North,360,6.0,8.0,45,0.00,,---,0.00,VWS V12.08,2013-09-09 18:13:00,
2013-09-09 14:18:00,71.1,48.1,29.55,North,360,4.0,10.0,44,0.00,,---,0.00,VWS V12.08,2013-09-09 18:18:00,
2013-09-09 14:23:00,70.9,48.5,29.55,North,360,5.0,10.0,45,0.00,,---,0.00,VWS V12.08,2013-09-09 18:23:00,
2013-09-09 14:28:00,70.6,48.8,29.55,North,360,0.0,0.0,46,0.00,,---,0.00,VWS V12.08,2013-09-09 18:28:00,
2013-09-09 14:33:00,70.1,49.5,29.55,North,360,2.0,9.0,48,0.00,,---,0.00,VWS V12.08,2013-09-09 18:33:00,
2013-09-09 14:38:00,69.9,49.3,29.55,North,360,2.0,10.0,48,0.00,,---,0.00,VWS V12.08,2013-09-09 18:38:00,
2013-09-09 14:43:00,70.3,49.7,29.55,North,360,5.0,10.0,48,0.00,,---,0.00,VWS V12.08,2013-09-09 18:43:00,
2013-09-09 14:48:00,69.6,49.6,29.55,North,360,5.0,10.0,49,0.00,,---,0.00,VWS V12.08,2013-09-09 18:48:00,
2013-09-09 14:53:00,69.8,49.8,29.55,North,360,5.0,10.0,49,0.00,,---,0.00,VWS V12.08,2013-09-09 18:53:00,
2013-09-09 14:58:00,70.1,50.1,29.56,North,360,0.0,3.0,49,0.00,,---,0.00,VWS V12.08,2013-09-09 18:58:00,
2013-09-09 15:03:00,70.1,49.5,29.56,North,360,1.0,6.0,48,0.00,,---,0.00,VWS V12.08,2013-09-09 19:03:00,
2013-09-09 15:08:00,70.1,50.1,29.56,North,360,1.0,6.0,49,0.00,,---,0.00,VWS V12.08,2013-09-09 19:08:00,
2013-09-09 15:13:00,70.9,49.7,29.55,North,360,0.0,6.0,47,0.00,,---,0.00,VWS V12.08,2013-09-09 19:13:00,
2013-09-09 15:18:00,71.6,49.8,29.55,North,360,2.0,6.0,46,0.00,,---,0.00,VWS V12.08,2013-09-09 19:18:00,
2013-09-09 15:23:00,71.3,49.5,29.55,SSE,155,0.0,6.0,46,0.00,,---,0.00,VWS V12.08,2013-09-09 19:23:00,
2013-09-09 15:28:00,70.9,50.2,29.56,North,360,2.0,3.0,48,0.00,,---,0.00,VWS V12.08,2013-09-09 19:28:00,
2013-09-09 15:33:00,71.1,49.9,29.56,North,360,2.0,3.0,47,0.00,,---,0.00,VWS V12.08,2013-09-09 19:33:00,
2013-09-09 15:38:00,71.5,50.2,29.56,North,360,5.0,6.0,47,0.00,,---,0.00,VWS V12.08,2013-09-09 19:38:00,
2013-09-09 15:43:00,71.6,49.8,29.55,North,360,0.0,6.0,46,0.00,,---,0.00,VWS V12.08,2013-09-09 19:43:00,
2013-09-09 15:48:00,71.3,50.0,29.55,North,360,2.0,10.0,47,0.00,,---,0.00,VWS V12.08,2013-09-09 19:48:00,
2013-09-09 15:53:00,70.6,50.0,29.55,North,360,0.0,10.0,48,0.00,,---,0.00,VWS V12.08,2013-09-09 19:53:00,
2013-09-09 15:58:00,70.6,50.0,29.55,North,360,5.0,5.0,48,0.00,,---,0.00,VWS V12.08,2013-09-09 19:58:00,
2013-09-09 16:03:00,71.5,50.2,29.55,North,360,0.0,5.0,47,0.00,,---,0.00,VWS V12.08,2013-09-09 20:03:00,
2013-09-09 16:08:00,72.3,49.8,29.55,North,360,2.0,5.0,45,0.00,,---,0.00,VWS V12.08,2013-09-09 20:08:00,
2013-09-09 16:13:00,72.0,50.1,29.54,North,360,0.0,5.0,46,0.00,,---,0.00,VWS V12.08,2013-09-09 20:13:00,
2013-09-09 16:18:00,72.1,50.2,29.54,North,360,3.0,5.0,46,0.00,,---,0.00,VWS V12.08,2013-09-09 20:18:00,
2013-09-09 16:23:00,71.3,50.0,29.54,North,360,0.0,5.0,47,0.00,,---,0.00,VWS V12.08,2013-09-09 20:23:00,
2013-09-09 16:28:00,72.3,49.8,29.54,North,360,0.0,0.0,45,0.00,,---,0.00,VWS V12.08,2013-09-09 20:28:00,
2013-09-09 16:33:00,72.1,49.6,29.54,North,360,8.0,8.0,45,0.00,,---,0.00,VWS V12.08,2013-09-09 20:33:00,
2013-09-09 16:38:00,71.5,50.2,29.54,North,360,4.0,9.0,47,0.00,,---,0.00,VWS V12.08,2013-09-09 20:38:00,
2013-09-09 16:43:00,70.9,49.7,29.54,North,360,0.0,9.0,47,0.00,,---,0.00,VWS V12.08,2013-09-09 20:43:00,
2013-09-09 16:48:00,71.1,49.3,29.54,North,360,1.0,9.0,46,0.00,,---,0.00,VWS V12.08,2013-09-09 20:48:00,
2013-09-09 16:53:00,71.3,49.5,29.54,North,360,2.0,9.0,46,0.00,,---,0.00,VWS V12.08,2013-09-09 20:53:00,
2013-09-09 16:58:00,70.9,49.7,29.54,North,360,6.0,6.0,47,0.00,,---,0.00,VWS V12.08,2013-09-09 20:58:00,
2013-09-09 17:03:00,70.8,49.0,29.54,North,360,0.0,9.0,46,0.00,,---,0.00,VWS V12.08,2013-09-09 21:03:00,
2013-09-09 17:08:00,70.8,49.6,29.54,North,360,6.0,9.0,47,0.00,,---,0.00,VWS V12.08,2013-09-09 21:08:00,
2013-09-09 17:13:00,70.4,49.2,29.53,North,360,2.0,10.0,47,0.00,,---,0.00,VWS V12.08,2013-09-09 21:13:00,
2013-09-09 17:18:00,70.6,49.4,29.53,North,360,0.0,10.0,47,0.00,,---,0.00,VWS V12.08,2013-09-09 21:18:00,
2013-09-09 17:23:00,70.4,49.2,29.53,North,360,3.0,10.0,47,0.00,,---,0.00,VWS V12.08,2013-09-09 21:23:00,
2013-09-09 17:28:00,70.6,49.4,29.53,North,360,2.0,2.0,47,0.00,,---,0.00,VWS V12.08,2013-09-09 21:28:00,
2013-09-09 17:33:00,70.3,49.7,29.53,North,360,10.0,10.0,48,0.00,,---,0.00,VWS V12.08,2013-09-09 21:33:00,
2013-09-09 17:38:00,69.9,49.3,29.53,North,360,4.0,10.0,48,0.00,,---,0.00,VWS V12.08,2013-09-09 21:38:00,
2013-09-09 17:43:00,69.8,49.8,29.53,North,360,6.0,10.0,49,0.00,,---,0.00,VWS V12.08,2013-09-09 21:43:00,
2013-09-09 17:48:00,69.4,50.0,29.53,North,360,0.0,10.0,50,0.00,,---,0.00,VWS V12.08,2013-09-09 21:48:00,
2013-09-09 17:53:00,69.6,50.2,29.53,North,360,3.0,10.0,50,0.00,,---,0.00,VWS V12.08,2013-09-09 21:53:00,
2013-09-09 17:58:00,69.3,49.9,29.53,North,360,4.0,6.0,50,0.00,,---,0.00,VWS V12.08,2013-09-09 21:58:00,
2013-09-09 18:03:00,69.1,50.2,29.53,North,360,0.0,9.0,51,0.00,,---,0.00,VWS V12.08,2013-09-09 22:03:00,
2013-09-09 18:08:00,68.8,50.0,29.53,North,360,0.0,10.0,51,0.00,,---,0.00,VWS V12.08,2013-09-09 22:08:00,
2013-09-09 18:13:00,68.8,50.0,29.53,North,360,3.0,10.0,51,0.00,,---,0.00,VWS V12.08,2013-09-09 22:13:00,
2013-09-09 18:18:00,68.6,50.3,29.53,North,360,0.0,10.0,52,0.00,,---,0.00,VWS V12.08,2013-09-09 22:18:00,
2013-09-09 18:23:00,68.8,50.5,29.53,North,360,0.0,10.0,52,0.00,,---,0.00,VWS V12.08,2013-09-09 22:23:00,
2013-09-09 18:28:00,68.9,50.6,29.53,North,360,6.0,6.0,52,0.00,,---,0.00,VWS V12.08,2013-09-09 22:28:00,
2013-09-09 18:33:00,68.8,50.5,29.53,North,360,1.0,6.0,52,0.00,,---,0.00,VWS V12.08,2013-09-09 22:33:00,
2013-09-09 18:38:00,68.4,50.6,29.53,North,360,5.0,9.0,53,0.00,,---,0.00,VWS V12.08,2013-09-09 22:38:00,
2013-09-09 18:43:00,68.3,51.0,29.53,North,360,0.0,9.0,54,0.00,,---,0.00,VWS V12.08,2013-09-09 22:43:00,
2013-09-09 18:48:00,68.6,50.8,29.53,North,360,3.0,9.0,53,0.00,,---,0.00,VWS V12.08,2013-09-09 22:48:00,
2013-09-09 18:53:00,68.4,51.1,29.53,ESE,109,4.0,9.0,54,0.00,,---,0.00,VWS V12.08,2013-09-09 22:53:00,
2013-09-09 18:58:00,68.3,51.0,29.53,North,360,0.0,0.0,54,0.00,,---,0.00,VWS V12.08,2013-09-09 22:58:00,
2013-09-09 19:03:00,68.3,51.0,29.53,North,360,0.0,5.0,54,0.00,,---,0.00,VWS V12.08,2013-09-09 23:03:00,
2013-09-09 19:08:00,68.6,51.3,29.53,North,360,3.0,6.0,54,0.00,,---,0.00,VWS V12.08,2013-09-09 23:08:00,
2013-09-09 19:13:00,68.6,51.8,29.52,North,360,1.0,6.0,55,0.00,,---,0.00,VWS V12.08,2013-09-09 23:13:00,
2013-09-09 19:18:00,68.6,51.8,29.52,North,360,3.0,7.0,55,0.00,,---,0.00,VWS V12.08,2013-09-09 23:18:00,
2013-09-09 19:23:00,68.4,52.1,29.52,SSE,156,0.0,7.0,56,0.00,,---,0.00,VWS V12.08,2013-09-09 23:23:00,
2013-09-09 19:28:00,68.3,52.5,29.51,North,360,4.0,4.0,57,0.00,,---,0.00,VWS V12.08,2013-09-09 23:28:00,
2013-09-09 19:33:00,68.4,52.6,29.51,North,360,0.0,5.0,57,0.00,,---,0.00,VWS V12.08,2013-09-09 23:33:00,
2013-09-09 19:38:00,68.3,52.5,29.51,North,360,0.0,5.0,57,0.00,,---,0.00,VWS V12.08,2013-09-09 23:38:00,
2013-09-09 19:43:00,68.3,53.0,29.52,North,360,3.0,8.0,58,0.00,,---,0.00,VWS V12.08,2013-09-09 23:43:00,
2013-09-09 19:48:00,67.9,53.1,29.52,North,360,1.0,13.0,59,0.00,,---,0.00,VWS V12.08,2013-09-09 23:48:00,
2013-09-09 19:53:00,67.8,53.0,29.52,North,360,2.0,13.0,59,0.00,,---,0.00,VWS V12.08,2013-09-09 23:53:00,
2013-09-09 19:58:00,67.8,53.4,29.52,North,360,0.0,0.0,60,0.00,,---,0.00,VWS V12.08,2013-09-09 23:58:00,
2013-09-09 20:03:00,67.8,53.4,29.52,North,360,0.0,10.0,60,0.00,,---,0.00,VWS V12.08,2013-09-10 00:03:00,
2013-09-09 20:08:00,68.1,53.7,29.52,North,360,1.0,10.0,60,0.00,,---,0.00,VWS V12.08,2013-09-10 00:08:00,
2013-09-09 20:13:00,67.8,53.9,29.53,SE,126,2.0,10.0,61,0.00,,---,0.00,VWS V12.08,2013-09-10 00:13:00,
2013-09-09 20:18:00,67.8,53.9,29.53,North,360,5.0,10.0,61,0.00,,---,0.00,VWS V12.08,2013-09-10 00:18:00,
2013-09-09 20:23:00,67.8,53.9,29.53,North,360,0.0,10.0,61,0.00,,---,0.00,VWS V12.08,2013-09-10 00:23:00,
2013-09-09 20:28:00,67.8,53.9,29.52,North,360,0.0,5.0,61,0.00,,---,0.00,VWS V12.08,2013-09-10 00:28:00,
2013-09-09 20:33:00,67.6,54.1,29.52,North,360,0.0,7.0,62,0.00,,---,0.00,VWS V12.08,2013-09-10 00:33:00,
2013-09-09 20:38:00,67.8,54.3,29.52,North,360,1.0,8.0,62,0.00,,---,0.00,VWS V12.08,2013-09-10 00:38:00,
2013-09-09 20:43:00,67.9,54.4,29.53,North,360,6.0,8.0,62,0.00,,---,0.00,VWS V12.08,2013-09-10 00:43:00,
2013-09-09 20:48:00,67.9,54.8,29.53,North,360,1.0,8.0,63,0.00,,---,0.00,VWS V12.08,2013-09-10 00:48:00,
2013-09-09 20:53:00,68.3,54.8,29.53,North,360,0.0,8.0,62,0.00,,---,0.00,VWS V12.08,2013-09-10 00:53:00,
2013-09-09 20:58:00,68.6,55.1,29.53,North,360,2.0,2.0,62,0.00,,---,0.00,VWS V12.08,2013-09-10 00:58:00,
2013-09-09 21:03:00,68.3,55.2,29.53,North,360,3.0,13.0,63,0.00,,---,0.00,VWS V12.08,2013-09-10 01:03:00,
2013-09-09 21:08:00,68.1,55.0,29.53,North,360,5.0,13.0,63,0.00,,---,0.00,VWS V12.08,2013-09-10 01:08:00,
2013-09-09 21:13:00,68.1,55.5,29.53,North,360,4.0,13.0,64,0.00,,---,0.00,VWS V12.08,2013-09-10 01:13:00,
2013-09-09 21:18:00,68.1,55.5,29.53,North,360,1.0,13.0,64,0.00,,---,0.00,VWS V12.08,2013-09-10 01:18:00,
2013-09-09 21:23:00,68.1,55.5,29.53,North,360,5.0,13.0,64,0.00,,---,0.00,VWS V12.08,2013-09-10 01:23:00,
2013-09-09 21:28:00,68.1,55.5,29.52,North,360,5.0,10.0,64,0.00,,---,0.00,VWS V12.08,2013-09-10 01:28:00,
2013-09-09 21:33:00,68.3,56.1,29.52,North,360,0.0,10.0,65,0.00,,---,0.00,VWS V12.08,2013-09-10 01:33:00,
2013-09-09 21:38:00,68.4,56.2,29.52,North,360,4.0,10.0,65,0.00,,---,0.00,VWS V12.08,2013-09-10 01:38:00,
2013-09-09 21:43:00,68.3,56.1,29.52,North,360,3.0,14.0,65,0.00,,---,0.00,VWS V12.08,2013-09-10 01:43:00,
2013-09-09 21:48:00,68.3,56.5,29.52,North,360,4.0,14.0,66,0.00,,---,0.00,VWS V12.08,2013-09-10 01:48:00,
2013-09-09 21:53:00,68.4,56.6,29.52,North,360,5.0,14.0,66,0.00,,---,0.00,VWS V12.08,2013-09-10 01:53:00,
2013-09-09 21:58:00,68.3,56.5,29.52,North,360,0.0,6.0,66,0.00,,---,0.00,VWS V12.08,2013-09-10 01:58:00,
2013-09-09 22:03:00,68.3,56.5,29.52,North,360,8.0,9.0,66,0.00,,---,0.00,VWS V12.08,2013-09-10 02:03:00,
2013-09-09 22:08:00,68.4,56.6,29.52,North,360,8.0,9.0,66,0.00,,---,0.00,VWS V12.08,2013-09-10 02:08:00,
2013-09-09 22:13:00,68.6,56.8,29.52,North,360,3.0,9.0,66,0.00,,---,0.00,VWS V12.08,2013-09-10 02:13:00,
2013-09-09 22:18:00,68.4,56.6,29.52,North,360,1.0,9.0,66,0.00,,---,0.00,VWS V12.08,2013-09-10 02:18:00,
2013-09-09 22:23:00,68.4,56.6,29.52,North,360,1.0,9.0,66,0.00,,---,0.00,VWS V12.08,2013-09-10 02:23:00,
2013-09-09 22:28:00,68.4,57.0,29.51,North,360,0.0,2.0,67,0.00,,---,0.00,VWS V12.08,2013-09-10 02:28:00,
2013-09-09 22:33:00,68.6,56.8,29.51,North,360,3.0,4.0,66,0.00,,---,0.00,VWS V12.08,2013-09-10 02:33:00,
2013-09-09 22:38:00,68.4,57.0,29.51,North,360,0.0,12.0,67,0.00,,---,0.00,VWS V12.08,2013-09-10 02:38:00,
2013-09-09 22:43:00,68.6,57.2,29.52,North,360,2.0,12.0,67,0.00,,---,0.00,VWS V12.08,2013-09-10 02:43:00,
2013-09-09 22:48:00,68.8,57.0,29.52,North,360,6.0,12.0,66,0.00,,---,0.00,VWS V12.08,2013-09-10 02:48:00,
2013-09-09 22:53:00,68.8,57.4,29.52,North,360,1.0,12.0,67,0.00,,---,0.00,VWS V12.08,2013-09-10 02:53:00,
2013-09-09 22:58:00,68.6,57.2,29.51,North,360,0.0,0.0,67,0.00,,---,0.00,VWS V12.08,2013-09-10 02:58:00,
2013-09-09 23:03:00,68.9,57.5,29.51,North,360,2.0,5.0,67,0.00,,---,0.00,VWS V12.08,2013-09-10 03:03:00,
2013-09-09 23:08:00,68.8,57.4,29.51,North,360,1.0,7.0,67,0.00,,---,0.00,VWS V12.08,2013-09-10 03:08:00,
2013-09-09 23:13:00,68.8,57.4,29.52,SSE,148,0.0,9.0,67,0.00,,---,0.00,VWS V12.08,2013-09-10 03:13:00,
2013-09-09 23:18:00,68.8,57.8,29.52,North,360,2.0,10.0,68,0.00,,---,0.00,VWS V12.08,2013-09-10 03:18:00,
2013-09-09 23:23:00,68.8,57.4,29.52,North,360,4.0,10.0,67,0.00,,---,0.00,VWS V12.08,2013-09-10 03:23:00,
2013-09-09 23:28:00,68.8,57.8,29.52,North,360,6.0,7.0,68,0.00,,---,0.00,VWS V12.08,2013-09-10 03:28:00,
2013-09-09 23:33:00,68.8,57.8,29.52,North,360,4.0,11.0,68,0.00,,---,0.00,VWS V12.08,2013-09-10 03:33:00,
2013-09-09 23:38:00,68.8,57.8,29.52,North,360,3.0,11.0,68,0.00,,---,0.00,VWS V12.08,2013-09-10 03:38:00,
2013-09-09 23:43:00,68.9,57.9,29.52,SE,144,2.0,11.0,68,0.00,,---,0.00,VWS V12.08,2013-09-10 03:43:00,
2013-09-09 23:48:00,69.3,57.9,29.52,North,360,1.0,11.0,67,0.00,,---,0.00,VWS V12.08,2013-09-10 03:48:00,
2013-09-09 23:53:00,68.9,57.9,29.52,North,360,4.0,11.0,68,0.00,,---,0.00,VWS V12.08,2013-09-10 03:53:00,
2013-09-09 23:58:00,68.8,58.2,29.51,North,360,3.0,4.0,69,0.00,,---,0.00,VWS V12.08,2013-09-10 03:58:00,